Clarks Point AP, Clarks Point, AK

8:12 PM AKST on November 21, 2019 (GMT -0900)
Clarks Point AP, Clarks Point

Weather History for PFCL - October, 2019

Change the Weather History Date:

Monday, October 21, 2019

  Actual Average (WUND) Record (WUND)
Temperature  
Mean Temperature 37 °F -  
Max Temperature 44 °F - - (-1)
Min Temperature 30 °F - - (-1)
Degree Days  
Heating Degree Days 28    
Moisture  
Dew Point 36 °F    
Average Humidity 98    
Maximum Humidity 100    
Minimum Humidity 87    
Precipitation  
Precipitation 0.09 in - - ()
Sea Level Pressure  
Sea Level Pressure 29.56 in    
Wind  
Wind Speed 9 mph (ESE)    
Max Wind Speed 17 mph    
Max Gust Speed -    
Visibility 10 miles    
Events Rain    
Averages and records for this station are not official NWS values.
T = Trace of Precipitation, MM = Missing Value Source: NWS Daily Summary

Daily Weather History Graph

Daily Weather History Graph

Search for Another Location

Airport or City:

Astronomy

Oct. 21, 2019 Rise Set
Actual Time 9:25 AM AKDT 7:11 PM AKDT
Civil Twilight 8:43 AM AKDT 7:52 PM AKDT
Nautical Twilight 7:56 AM AKDT 8:39 PM AKDT
Astronomical Twilight 7:10 AM AKDT 9:25 PM AKDT
Moon No Moon Rise 5:42 PM AKDT (10/21)
Length of Visible Light 11h 08m
Length of Day
9h 46m
Waning Gibbous, 47% of the Moon is Illuminated
Oct 21
Waning Gibbous
Oct 27
New
Nov 4
First Quarter
Nov 12
Full
Nov 19
Last Quarter

Hourly Weather History & Observations

Time (AKDT) Temp. Windchill Dew Point Humidity Pressure Visibility Wind Dir Wind Speed Gust Speed Precip Events Conditions
12:21 AM 30.2 °F 26.7 °F 30.2 °F 100% 29.59 in 10.0 mi NE 3.5 mph - N/A   Mostly Cloudy
12:33 AM 30.2 °F 24.3 °F 30.2 °F 100% 29.59 in 10.0 mi NE 5.8 mph - N/A   Scattered Clouds
12:56 AM 30.9 °F 26.2 °F 30.9 °F 100% 29.57 in 10.0 mi NE 4.6 mph - N/A   Partly Cloudy
1:20 AM 30.2 °F 24.3 °F 30.2 °F 100% 29.58 in 10.0 mi NE 5.8 mph - N/A   Mostly Cloudy
1:56 AM 30.9 °F 22.8 °F 30.9 °F 100% 29.56 in 10.0 mi ENE 9.2 mph - N/A   Scattered Clouds
2:12 AM 32.0 °F 23.6 °F 32.0 °F 100% 29.58 in 10.0 mi ENE 10.4 mph - N/A   Scattered Clouds
2:29 AM 32.0 °F 23.0 °F 32.0 °F 100% 29.57 in 10.0 mi ENE 11.5 mph - N/A   Mostly Cloudy
2:56 AM 32.0 °F 23.6 °F 32.0 °F 100% 29.55 in 10.0 mi ENE 10.4 mph - N/A   Overcast
3:24 AM 33.8 °F 26.4 °F 33.8 °F 100% 29.56 in 10.0 mi ENE 9.2 mph - N/A   Overcast
3:56 AM 34.0 °F 24.6 °F 34.0 °F 100% 29.54 in 10.0 mi ENE 13.8 mph - N/A   Overcast
4:56 AM 34.0 °F 25.0 °F 34.0 °F 100% 29.53 in 10.0 mi East 12.7 mph - 0.00 in   Overcast
7:56 AM 35.1 °F 26.4 °F 35.1 °F 100% 29.51 in 10.0 mi East 12.7 mph - 0.00 in   Mostly Cloudy
8:29 AM 35.6 °F 26.6 °F 35.6 °F 100% 29.53 in 10.0 mi East 13.8 mph - N/A   Mostly Cloudy
8:56 AM 35.1 °F 25.9 °F 35.1 °F 100% 29.51 in 10.0 mi East 13.8 mph - N/A   Mostly Cloudy
9:10 AM 35.6 °F 27.1 °F 35.6 °F 100% 29.53 in 10.0 mi East 12.7 mph - N/A   Partly Cloudy
9:24 AM 35.6 °F 27.5 °F 35.6 °F 100% 29.53 in 10.0 mi ESE 11.5 mph - N/A   Mostly Cloudy
9:56 AM 37.9 °F 29.2 °F 37.9 °F 100% 29.52 in 6.0 mi East 15.0 mph - 0.01 in Rain Light Rain
10:56 AM 39.9 °F 33.9 °F 39.9 °F 100% 29.53 in 10.0 mi SE 9.2 mph - 0.04 in Rain Light Rain
11:41 AM 41.0 °F 35.8 °F 41.0 °F 100% 29.55 in 10.0 mi SSE 8.1 mph - 0.01 in   Mostly Cloudy
11:51 AM 41.0 °F 35.2 °F 41.0 °F 100% 29.56 in 10.0 mi South 9.2 mph - 0.01 in Rain Light Rain
11:56 AM 41.0 °F 36.4 °F 41.0 °F 100% 29.54 in 10.0 mi South 6.9 mph - 0.01 in Rain Light Rain
12:56 PM 42.1 °F 35.2 °F 42.1 °F 100% 29.55 in 10.0 mi SSE 12.7 mph - 0.00 in Rain Light Rain
1:13 PM 42.8 °F 35.8 °F 39.2 °F 87% 29.56 in 10.0 mi SSE 13.8 mph - 0.00 in   Mostly Cloudy
1:56 PM 43.0 °F 35.4 °F 41.0 °F 93% 29.55 in 10.0 mi SSW 16.1 mph - 0.01 in Rain Light Rain
2:56 PM 42.1 °F 38.4 °F 41.0 °F 96% 29.56 in 10.0 mi South 5.8 mph - 0.01 in   Overcast
4:42 PM 44.6 °F 39.2 °F 42.8 °F 93% 29.58 in 10.0 mi SSE 10.4 mph - 0.00 in Rain Light Rain
4:56 PM 44.1 °F 38.6 °F 43.0 °F 96% 29.56 in 10.0 mi South 10.4 mph - 0.00 in   Overcast
5:42 PM 42.8 °F 34.8 °F 39.2 °F 87% 29.59 in 10.0 mi South 17.3 mph - 0.00 in Rain Light Rain
5:56 PM 41.0 °F 33.5 °F 39.9 °F 96% 29.57 in 10.0 mi SSE 13.8 mph - 0.00 in Rain Light Rain
6:10 PM 41.0 °F 34.7 °F 39.2 °F 93% 29.58 in 10.0 mi SE 10.4 mph - 0.00 in Rain Light Rain
6:56 PM 39.0 °F 33.4 °F 37.9 °F 96% 29.57 in 10.0 mi SE 8.1 mph - 0.01 in   Mostly Cloudy
7:56 PM 35.1 °F 30.1 °F 35.1 °F 100% 29.58 in 10.0 mi SSE 5.8 mph - N/A   Clear
8:56 PM 35.1 °F 28.6 °F 35.1 °F 100% 29.60 in 10.0 mi SE 8.1 mph - N/A   Clear
9:56 PM 33.1 °F 27.7 °F 33.1 °F 100% 29.61 in 10.0 mi SE 5.8 mph - N/A   Scattered Clouds
10:56 PM 33.1 °F 26.9 °F 33.1 °F 100% 29.63 in 10.0 mi SE 6.9 mph - N/A   Clear
11:56 PM 34.0 °F 28.8 °F 34.0 °F 100% 29.64 in 10.0 mi SE 5.8 mph - N/A   Scattered Clouds